Time,TemperatureF,DewpointF,PressureIn,WindDirection,WindDirectionDegrees,WindSpeedMPH,WindSpeedGustMPH,Humidity,HourlyPrecipIn,Conditions,Clouds,dailyrainin,SoftwareType,DateUTC
2013-12-20 00:02:00,12.5,9.6,30.09,NNE,32,2.0,4.0,88,0.00,,SKC,0.00,VWS V14.01,2013-12-20 06:02:00,
2013-12-20 00:07:00,12.5,9.6,30.09,North,360,1.0,5.0,88,0.00,,SKC,0.00,VWS V14.01,2013-12-20 06:07:00,
2013-12-20 00:12:00,12.5,9.6,30.09,NNW,346,1.0,6.0,88,0.00,,SKC,0.00,VWS V14.01,2013-12-20 06:12:00,
2013-12-20 00:17:00,12.6,9.7,30.08,NW,323,2.0,7.0,88,0.00,,SKC,0.00,VWS V14.01,2013-12-20 06:17:00,
2013-12-20 00:22:00,12.5,9.6,30.08,NNE,24,0.0,8.0,88,0.00,,SKC,0.00,VWS V14.01,2013-12-20 06:22:00,
2013-12-20 00:27:00,12.5,9.6,30.08,ENE,63,1.0,8.0,88,0.00,,SKC,0.00,VWS V14.01,2013-12-20 06:27:00,
2013-12-20 00:32:00,12.5,9.4,30.08,NE,36,0.0,2.0,87,0.00,,SKC,0.00,VWS V14.01,2013-12-20 06:32:00,
2013-12-20 00:37:00,12.5,9.4,30.08,NW,317,0.0,5.0,87,0.00,,SKC,0.00,VWS V14.01,2013-12-20 06:37:00,
2013-12-20 00:42:00,12.5,9.4,30.08,NNE,24,0.0,5.0,87,0.00,,SKC,0.00,VWS V14.01,2013-12-20 06:42:00,
2013-12-20 00:47:00,12.5,9.4,30.08,NNW,343,1.0,5.0,87,0.00,,SKC,0.00,VWS V14.01,2013-12-20 06:47:00,
2013-12-20 00:52:00,12.5,9.4,30.08,NNE,28,1.0,5.0,87,0.00,,SKC,0.00,VWS V14.01,2013-12-20 06:52:00,
2013-12-20 00:57:00,12.5,9.6,30.07,NW,321,2.0,6.0,88,0.00,,SKC,0.00,VWS V14.01,2013-12-20 06:57:00,
2013-12-20 01:02:00,12.5,9.6,30.08,North,355,4.0,4.0,88,0.00,,SKC,0.00,VWS V14.01,2013-12-20 07:02:00,
2013-12-20 01:07:00,12.5,9.6,30.07,NNW,336,0.0,4.0,88,0.00,,SKC,0.00,VWS V14.01,2013-12-20 07:07:00,
2013-12-20 01:12:00,12.5,9.6,30.07,NNW,344,0.0,6.0,88,0.00,,SKC,0.00,VWS V14.01,2013-12-20 07:12:00,
2013-12-20 01:17:00,12.5,9.6,30.07,NW,315,2.0,11.0,88,0.00,,SKC,0.00,VWS V14.01,2013-12-20 07:17:00,
2013-12-20 01:22:00,12.5,9.6,30.08,NW,325,1.0,11.0,88,0.00,,SKC,0.00,VWS V14.01,2013-12-20 07:22:00,
2013-12-20 01:27:00,12.5,9.6,30.07,NW,319,0.0,11.0,88,0.00,,SKC,0.00,VWS V14.01,2013-12-20 07:27:00,
2013-12-20 01:31:00,12.5,9.6,30.07,NW,319,0.0,2.0,88,0.00,,SKC,0.00,VWS V14.01,2013-12-20 07:31:00,
2013-12-20 01:37:00,12.4,9.5,30.07,North,5,1.0,5.0,88,0.00,,SKC,0.00,VWS V14.01,2013-12-20 07:37:00,
2013-12-20 01:42:00,12.4,9.5,30.07,NNW,327,0.0,5.0,88,0.00,,SKC,0.00,VWS V14.01,2013-12-20 07:42:00,
2013-12-20 01:46:00,12.3,9.4,30.07,NNW,330,1.0,5.0,88,0.00,,SKC,0.00,VWS V14.01,2013-12-20 07:46:00,
2013-12-20 01:51:00,12.3,9.2,30.07,East,88,0.0,5.0,87,0.00,,SKC,0.00,VWS V14.01,2013-12-20 07:51:00,
2013-12-20 01:56:00,12.2,9.3,30.07,NNE,27,0.0,5.0,88,0.00,,SKC,0.00,VWS V14.01,2013-12-20 07:56:00,
2013-12-20 02:01:00,12.1,9.0,30.07,North,5,0.0,4.0,87,0.00,,SKC,0.00,VWS V14.01,2013-12-20 08:01:00,
2013-12-20 02:06:00,12.0,8.9,30.07,NNE,19,0.0,4.0,87,0.00,,SKC,0.00,VWS V14.01,2013-12-20 08:06:00,
2013-12-20 02:11:00,11.9,8.8,30.07,NNE,17,0.0,4.0,87,0.00,,SKC,0.00,VWS V14.01,2013-12-20 08:11:00,
2013-12-20 02:16:00,11.7,8.6,30.07,NW,314,4.0,6.0,87,0.00,,SKC,0.00,VWS V14.01,2013-12-20 08:16:00,
2013-12-20 02:21:00,11.7,8.6,30.07,NW,309,0.0,6.0,87,0.00,,SKC,0.00,VWS V14.01,2013-12-20 08:21:00,
2013-12-20 02:26:00,11.6,8.5,30.07,NW,322,0.0,6.0,87,0.00,,SKC,0.00,VWS V14.01,2013-12-20 08:26:00,
2013-12-20 02:31:00,11.4,8.3,30.08,NNW,337,0.0,6.0,87,0.00,,SKC,0.00,VWS V14.01,2013-12-20 08:31:00,
2013-12-20 02:36:00,11.3,8.2,30.07,NNW,338,0.0,6.0,87,0.00,,SKC,0.00,VWS V14.01,2013-12-20 08:36:00,
2013-12-20 02:41:00,11.2,8.1,30.07,NW,326,5.0,6.0,87,0.00,,SKC,0.00,VWS V14.01,2013-12-20 08:41:00,
2013-12-20 02:46:00,11.2,8.1,30.07,NW,326,0.0,6.0,87,0.00,,SKC,0.00,VWS V14.01,2013-12-20 08:46:00,
2013-12-20 02:51:00,11.0,7.9,30.07,NW,313,0.0,6.0,87,0.00,,SKC,0.00,VWS V14.01,2013-12-20 08:51:00,
2013-12-20 02:56:00,10.9,7.8,30.07,NW,313,1.0,8.0,87,0.00,,SKC,0.00,VWS V14.01,2013-12-20 08:56:00,
2013-12-20 03:01:00,10.8,7.7,30.07,NW,325,0.0,2.0,87,0.00,,SKC,0.00,VWS V14.01,2013-12-20 09:01:00,
2013-12-20 03:06:00,10.7,7.6,30.08,NW,309,7.0,7.0,87,0.00,,SKC,0.00,VWS V14.01,2013-12-20 09:06:00,
2013-12-20 03:11:00,10.5,7.4,30.07,NW,325,4.0,7.0,87,0.00,,SKC,0.00,VWS V14.01,2013-12-20 09:11:00,
2013-12-20 03:16:00,10.4,7.3,30.07,NNE,32,0.0,7.0,87,0.00,,SKC,0.00,VWS V14.01,2013-12-20 09:16:00,
2013-12-20 03:21:00,10.3,7.2,30.07,NNW,327,5.0,7.0,87,0.00,,SKC,0.00,VWS V14.01,2013-12-20 09:21:00,
2013-12-20 03:26:00,10.3,7.2,30.07,NNW,335,0.0,7.0,87,0.00,,SKC,0.00,VWS V14.01,2013-12-20 09:26:00,
2013-12-20 03:31:00,10.1,7.0,30.07,NW,313,0.0,2.0,87,0.00,,SKC,0.00,VWS V14.01,2013-12-20 09:31:00,
2013-12-20 03:36:00,10.0,6.9,30.07,NNW,327,0.0,9.0,87,0.00,,SKC,0.00,VWS V14.01,2013-12-20 09:36:00,
2013-12-20 03:41:00,9.8,6.7,30.06,NW,305,0.0,9.0,87,0.00,,SKC,0.00,VWS V14.01,2013-12-20 09:41:00,
2013-12-20 03:46:00,9.7,6.6,30.06,NW,305,0.0,9.0,87,0.00,,SKC,0.00,VWS V14.01,2013-12-20 09:46:00,
2013-12-20 03:51:00,9.5,6.4,30.06,NW,305,0.0,9.0,87,0.00,,SKC,0.00,VWS V14.01,2013-12-20 09:51:00,
2013-12-20 03:56:00,9.4,6.3,30.06,NW,315,0.0,9.0,87,0.00,,SKC,0.00,VWS V14.01,2013-12-20 09:56:00,
2013-12-20 04:01:00,9.2,6.1,30.06,NNW,336,1.0,2.0,87,0.00,,SKC,0.00,VWS V14.01,2013-12-20 10:01:00,
2013-12-20 04:06:00,9.1,6.0,30.06,NNE,31,0.0,-999.0,87,-99.99,,,0.00,weatherlink.com 1.10,2013-12-20 10:06:00,
2013-12-20 04:11:00,9.0,5.9,30.06,NNE,27,0.0,3.0,87,0.00,,SKC,0.00,VWS V14.01,2013-12-20 10:11:00,
2013-12-20 04:16:00,8.9,5.8,30.06,NW,314,0.0,4.0,87,0.00,,SKC,0.00,VWS V14.01,2013-12-20 10:16:00,
2013-12-20 04:21:00,8.7,5.6,30.06,NW,312,0.0,5.0,87,0.00,,SKC,0.00,VWS V14.01,2013-12-20 10:21:00,
2013-12-20 04:26:00,8.7,5.6,30.06,NNW,332,0.0,5.0,87,0.00,,SKC,0.00,VWS V14.01,2013-12-20 10:26:00,
2013-12-20 04:31:00,8.6,5.5,30.06,NNW,328,0.0,1.0,87,0.00,,SKC,0.00,VWS V14.01,2013-12-20 10:31:00,
2013-12-20 04:36:00,8.5,5.4,30.06,NW,321,0.0,4.0,87,0.00,,SKC,0.00,VWS V14.01,2013-12-20 10:36:00,
2013-12-20 04:41:00,8.4,5.3,30.06,NW,321,0.0,4.0,87,0.00,,SKC,0.00,VWS V14.01,2013-12-20 10:41:00,
2013-12-20 04:46:00,8.2,5.1,30.06,NW,321,0.0,4.0,87,0.00,,SKC,0.00,VWS V14.01,2013-12-20 10:46:00,
2013-12-20 04:51:00,8.1,5.0,30.06,NW,321,0.0,4.0,87,0.00,,SKC,0.00,VWS V14.01,2013-12-20 10:51:00,
2013-12-20 04:56:00,8.0,5.2,30.05,NW,321,0.0,4.0,88,0.00,,SKC,0.00,VWS V14.01,2013-12-20 10:56:00,
2013-12-20 05:01:00,7.9,4.8,30.05,NW,321,0.0,1.0,87,0.00,,SKC,0.00,VWS V14.01,2013-12-20 11:01:00,
2013-12-20 05:06:00,7.8,5.0,30.05,NW,321,0.0,1.0,88,0.00,,SKC,0.00,VWS V14.01,2013-12-20 11:06:00,
2013-12-20 05:11:00,7.8,5.0,30.06,NW,321,0.0,1.0,88,0.00,,SKC,0.00,VWS V14.01,2013-12-20 11:11:00,
2013-12-20 05:16:00,7.8,5.0,30.06,NW,321,0.0,1.0,88,0.00,,SKC,0.00,VWS V14.01,2013-12-20 11:16:00,
2013-12-20 05:21:00,7.9,5.1,30.06,NW,321,0.0,1.0,88,0.00,,SKC,0.00,VWS V14.01,2013-12-20 11:21:00,
2013-12-20 05:26:00,8.0,5.4,30.06,NW,321,0.0,1.0,89,0.00,,SKC,0.00,VWS V14.01,2013-12-20 11:26:00,
2013-12-20 05:31:00,8.1,5.5,30.06,NW,321,0.0,0.0,89,0.00,,SKC,0.00,VWS V14.01,2013-12-20 11:31:00,
2013-12-20 05:36:00,8.3,5.7,30.06,NW,321,0.0,1.0,89,0.00,,SKC,0.00,VWS V14.01,2013-12-20 11:36:00,
2013-12-20 05:41:00,8.4,5.8,30.06,NW,321,0.0,1.0,89,0.00,,SKC,0.00,VWS V14.01,2013-12-20 11:41:00,
2013-12-20 05:46:00,8.5,5.9,30.06,NW,321,0.0,1.0,89,0.00,,SKC,0.00,VWS V14.01,2013-12-20 11:46:00,
2013-12-20 05:51:00,8.6,6.0,30.06,NW,321,0.0,1.0,89,0.00,,SKC,0.00,VWS V14.01,2013-12-20 11:51:00,
2013-12-20 05:56:00,8.7,6.1,30.06,NW,321,0.0,1.0,89,0.00,,SKC,0.00,VWS V14.01,2013-12-20 11:56:00,
2013-12-20 06:01:00,8.8,6.2,30.06,NW,321,0.0,1.0,89,0.00,,SKC,0.00,VWS V14.01,2013-12-20 12:01:00,
2013-12-20 06:06:00,9.0,6.4,30.06,NW,321,0.0,1.0,89,0.00,,SKC,0.00,VWS V14.01,2013-12-20 12:06:00,
2013-12-20 06:11:00,9.1,6.5,30.06,NW,321,0.0,2.0,89,0.00,,SKC,0.00,VWS V14.01,2013-12-20 12:11:00,
2013-12-20 06:16:00,9.2,6.6,30.06,NW,321,0.0,2.0,89,0.00,,SKC,0.00,VWS V14.01,2013-12-20 12:16:00,
2013-12-20 06:21:00,9.3,6.7,30.07,NW,321,0.0,2.0,89,0.00,,SKC,0.00,VWS V14.01,2013-12-20 12:21:00,
2013-12-20 06:26:00,9.4,6.8,30.07,NW,321,0.0,2.0,89,0.00,,SKC,0.00,VWS V14.01,2013-12-20 12:26:00,
2013-12-20 06:31:00,9.4,6.8,30.06,NW,321,0.0,0.0,89,0.00,,SKC,0.00,VWS V14.01,2013-12-20 12:31:00,
2013-12-20 06:36:00,9.4,6.6,30.06,NW,321,0.0,1.0,88,0.00,,SKC,0.00,VWS V14.01,2013-12-20 12:36:00,
2013-12-20 06:41:00,9.3,6.5,30.06,NW,321,0.0,1.0,88,0.00,,SKC,0.00,VWS V14.01,2013-12-20 12:41:00,
2013-12-20 06:46:00,9.3,6.7,30.06,NW,321,0.0,1.0,89,0.00,,SKC,0.00,VWS V14.01,2013-12-20 12:46:00,
2013-12-20 06:51:00,9.3,6.7,30.05,NW,321,0.0,1.0,89,0.00,,SKC,0.00,VWS V14.01,2013-12-20 12:51:00,
2013-12-20 06:56:00,9.2,6.4,30.05,NW,321,0.0,1.0,88,0.00,,SKC,0.00,VWS V14.01,2013-12-20 12:56:00,
2013-12-20 07:01:00,9.1,6.3,30.05,NW,321,0.0,2.0,88,0.00,,SKC,0.00,VWS V14.01,2013-12-20 13:01:00,
2013-12-20 07:06:00,8.8,6.0,30.05,NW,321,0.0,2.0,88,0.00,,SKC,0.00,VWS V14.01,2013-12-20 13:06:00,
2013-12-20 07:11:00,8.6,5.8,30.05,NW,321,1.0,2.0,88,0.00,,SKC,0.00,VWS V14.01,2013-12-20 13:11:00,
2013-12-20 07:16:00,8.4,5.6,30.05,NW,322,0.0,5.0,88,0.00,,SKC,0.00,VWS V14.01,2013-12-20 13:16:00,
2013-12-20 07:21:00,8.2,5.4,30.05,NW,322,0.0,5.0,88,0.00,,SKC,0.00,VWS V14.01,2013-12-20 13:21:00,
2013-12-20 07:26:00,7.9,4.8,30.05,WNW,292,1.0,5.0,87,0.00,,SKC,0.00,VWS V14.01,2013-12-20 13:26:00,
2013-12-20 07:31:00,7.8,5.0,30.05,WNW,292,1.0,1.0,88,0.00,,SKC,0.00,VWS V14.01,2013-12-20 13:31:00,
2013-12-20 07:36:00,7.6,4.8,30.05,WNW,294,0.0,4.0,88,0.00,,SKC,0.00,VWS V14.01,2013-12-20 13:36:00,
2013-12-20 07:41:00,7.4,4.6,30.05,WNW,294,0.0,4.0,88,0.00,,SKC,0.00,VWS V14.01,2013-12-20 13:41:00,
2013-12-20 07:46:00,7.3,4.5,30.05,WNW,294,0.0,4.0,88,0.00,,SKC,0.00,VWS V14.01,2013-12-20 13:46:00,
2013-12-20 07:51:00,7.1,4.3,30.05,WNW,294,0.0,4.0,88,0.00,,SKC,0.00,VWS V14.01,2013-12-20 13:51:00,
2013-12-20 07:56:00,7.0,4.2,30.05,NW,306,0.0,4.0,88,0.00,,SKC,0.00,VWS V14.01,2013-12-20 13:56:00,
2013-12-20 08:01:00,7.0,4.2,30.06,NW,306,0.0,4.0,88,0.00,,SKC,0.00,VWS V14.01,2013-12-20 14:01:00,
2013-12-20 08:06:00,6.8,4.0,30.06,WNW,292,0.0,4.0,88,0.00,,SKC,0.00,VWS V14.01,2013-12-20 14:06:00,
2013-12-20 08:11:00,6.7,3.9,30.06,WNW,292,2.0,4.0,88,0.00,,SKC,0.00,VWS V14.01,2013-12-20 14:11:00,
2013-12-20 08:16:00,6.6,3.8,30.06,WNW,292,0.0,4.0,88,0.00,,SKC,0.00,VWS V14.01,2013-12-20 14:16:00,
2013-12-20 08:21:00,6.6,3.8,30.06,WNW,292,0.0,4.0,88,0.00,,SKC,0.00,VWS V14.01,2013-12-20 14:21:00,
2013-12-20 08:26:00,6.5,3.7,30.07,WNW,292,1.0,4.0,88,0.00,,SKC,0.00,VWS V14.01,2013-12-20 14:26:00,
2013-12-20 08:31:00,6.5,3.7,30.06,WNW,292,0.0,2.0,88,0.00,,SKC,0.00,VWS V14.01,2013-12-20 14:31:00,
2013-12-20 08:36:00,6.5,3.7,30.06,WNW,292,0.0,2.0,88,0.00,,SKC,0.00,VWS V14.01,2013-12-20 14:36:00,
2013-12-20 08:41:00,6.5,3.7,30.06,WNW,292,0.0,2.0,88,0.00,,SKC,0.00,VWS V14.01,2013-12-20 14:41:00,
2013-12-20 08:46:00,6.5,3.7,30.06,WNW,292,1.0,2.0,88,0.00,,SKC,0.00,VWS V14.01,2013-12-20 14:46:00,
2013-12-20 08:51:00,6.5,3.7,30.06,WNW,292,0.0,2.0,88,0.00,,SKC,0.00,VWS V14.01,2013-12-20 14:51:00,
2013-12-20 08:56:00,6.5,3.7,30.06,WNW,297,0.0,4.0,88,0.00,,SKC,0.00,VWS V14.01,2013-12-20 14:56:00,
2013-12-20 09:01:00,6.5,3.7,30.06,WNW,300,0.0,0.0,88,0.00,,SKC,0.00,VWS V14.01,2013-12-20 15:01:00,
2013-12-20 09:06:00,6.6,3.8,30.06,WNW,300,0.0,2.0,88,0.00,,SKC,0.00,VWS V14.01,2013-12-20 15:06:00,
2013-12-20 09:11:00,6.7,3.9,30.06,WNW,300,0.0,2.0,88,0.00,,SKC,0.00,VWS V14.01,2013-12-20 15:11:00,
2013-12-20 09:16:00,7.1,4.3,30.06,WNW,300,0.0,4.0,88,0.00,,SKC,0.00,VWS V14.01,2013-12-20 15:16:00,
2013-12-20 09:21:00,7.5,4.9,30.06,WNW,300,0.0,4.0,89,0.00,,SKC,0.00,VWS V14.01,2013-12-20 15:21:00,
2013-12-20 09:26:00,8.1,5.3,30.06,WNW,300,0.0,4.0,88,0.00,,SKC,0.00,VWS V14.01,2013-12-20 15:26:00,
2013-12-20 09:31:00,8.6,5.8,30.05,WNW,300,0.0,1.0,88,0.00,,SKC,0.00,VWS V14.01,2013-12-20 15:31:00,
2013-12-20 09:36:00,9.1,6.3,30.05,NNE,15,0.0,3.0,88,0.00,,SKC,0.00,VWS V14.01,2013-12-20 15:36:00,
2013-12-20 09:41:00,9.4,6.3,30.05,NW,313,0.0,4.0,87,0.00,,SKC,0.00,VWS V14.01,2013-12-20 15:41:00,
2013-12-20 09:46:00,9.9,6.8,30.05,NE,34,2.0,4.0,87,0.00,,SKC,0.00,VWS V14.01,2013-12-20 15:46:00,
2013-12-20 09:51:00,10.3,7.2,30.05,NNE,19,0.0,4.0,87,0.00,,SKC,0.00,VWS V14.01,2013-12-20 15:51:00,
2013-12-20 09:56:00,10.6,7.2,30.05,NNE,32,0.0,4.0,86,0.00,,SKC,0.00,VWS V14.01,2013-12-20 15:56:00,
2013-12-20 10:01:00,10.9,7.5,30.05,NNE,32,0.0,2.0,86,0.00,,SKC,0.00,VWS V14.01,2013-12-20 16:01:00,
2013-12-20 10:06:00,11.1,7.5,30.05,NNE,19,2.0,3.0,85,0.00,,SKC,0.00,VWS V14.01,2013-12-20 16:06:00,
2013-12-20 10:11:00,11.2,7.6,30.05,NNW,330,0.0,4.0,85,0.00,,SKC,0.00,VWS V14.01,2013-12-20 16:11:00,
2013-12-20 10:16:00,11.6,8.0,30.05,NE,41,0.0,4.0,85,0.00,,SKC,0.00,VWS V14.01,2013-12-20 16:16:00,
2013-12-20 10:21:00,11.9,8.0,30.05,North,11,0.0,4.0,84,0.00,,SKC,0.00,VWS V14.01,2013-12-20 16:21:00,
2013-12-20 10:26:00,12.0,8.1,30.05,North,11,0.0,4.0,84,0.00,,SKC,0.00,VWS V14.01,2013-12-20 16:26:00,
2013-12-20 10:31:00,12.2,8.3,30.05,North,11,0.0,0.0,84,0.00,,SKC,0.00,VWS V14.01,2013-12-20 16:31:00,
2013-12-20 10:36:00,12.5,8.6,30.05,NNE,13,0.0,2.0,84,0.00,,SKC,0.00,VWS V14.01,2013-12-20 16:36:00,
2013-12-20 10:41:00,12.6,8.4,30.04,North,355,0.0,2.0,83,0.00,,SKC,0.00,VWS V14.01,2013-12-20 16:41:00,
2013-12-20 10:46:00,12.9,8.7,30.04,North,355,0.0,2.0,83,0.00,,SKC,0.00,VWS V14.01,2013-12-20 16:46:00,
2013-12-20 10:51:00,13.2,9.0,30.03,North,355,0.0,2.0,83,0.00,,SKC,0.00,VWS V14.01,2013-12-20 16:51:00,
2013-12-20 10:56:00,13.4,9.2,30.03,WNW,298,0.0,2.0,83,0.00,,SKC,0.00,VWS V14.01,2013-12-20 16:56:00,
2013-12-20 11:01:00,13.5,9.3,30.03,ENE,75,2.0,4.0,83,0.00,,SKC,0.00,VWS V14.01,2013-12-20 17:01:00,
2013-12-20 11:06:00,13.9,9.7,30.02,ENE,78,0.0,6.0,83,0.00,,SKC,0.00,VWS V14.01,2013-12-20 17:06:00,
2013-12-20 11:11:00,14.3,10.1,30.02,ESE,103,6.0,6.0,83,0.00,,SKC,0.00,VWS V14.01,2013-12-20 17:11:00,
2013-12-20 11:16:00,14.5,10.0,30.02,NE,45,0.0,8.0,82,0.00,,SKC,0.00,VWS V14.01,2013-12-20 17:16:00,
2013-12-20 11:21:00,14.8,10.3,30.01,East,97,0.0,8.0,82,0.00,,SKC,0.00,VWS V14.01,2013-12-20 17:21:00,
2013-12-20 11:26:00,15.1,10.6,30.01,East,79,4.0,8.0,82,0.00,,SKC,0.00,VWS V14.01,2013-12-20 17:26:00,
2013-12-20 11:31:00,15.4,10.9,30.01,NNE,27,2.0,2.0,82,0.00,,SKC,0.00,VWS V14.01,2013-12-20 17:31:00,
2013-12-20 11:36:00,15.7,11.2,30.01,East,80,0.0,4.0,82,0.00,,SKC,0.00,VWS V14.01,2013-12-20 17:36:00,
2013-12-20 11:41:00,15.9,11.1,30.01,NW,325,0.0,4.0,81,0.00,,SKC,0.00,VWS V14.01,2013-12-20 17:41:00,
2013-12-20 11:46:00,15.9,10.8,30.00,NE,49,4.0,4.0,80,0.00,,SKC,0.00,VWS V14.01,2013-12-20 17:46:00,
2013-12-20 11:51:00,16.0,11.2,30.00,NNE,33,2.0,5.0,81,0.00,,SKC,0.00,VWS V14.01,2013-12-20 17:51:00,
2013-12-20 11:56:00,16.2,11.1,30.00,NW,311,0.0,5.0,80,0.00,,SKC,0.00,VWS V14.01,2013-12-20 17:56:00,
2013-12-20 12:01:00,16.3,11.2,30.00,North,351,0.0,2.0,80,0.00,,SKC,0.00,VWS V14.01,2013-12-20 18:01:00,
2013-12-20 12:06:00,16.4,11.3,30.00,East,88,2.0,4.0,80,0.00,,SKC,0.00,VWS V14.01,2013-12-20 18:06:00,
2013-12-20 12:11:00,16.7,11.6,30.00,NE,46,0.0,4.0,80,0.00,,SKC,0.00,VWS V14.01,2013-12-20 18:11:00,
2013-12-20 12:16:00,17.0,11.9,29.99,NE,48,0.0,4.0,80,0.00,,SKC,0.00,VWS V14.01,2013-12-20 18:16:00,
2013-12-20 12:21:00,17.1,11.7,29.99,East,86,1.0,6.0,79,0.00,,SKC,0.00,VWS V14.01,2013-12-20 18:21:00,
2013-12-20 12:26:00,17.3,11.9,29.99,East,82,2.0,6.0,79,0.00,,SKC,0.00,VWS V14.01,2013-12-20 18:26:00,
2013-12-20 12:31:00,17.3,11.6,29.99,East,96,4.0,7.0,78,0.00,,SKC,0.00,VWS V14.01,2013-12-20 18:31:00,
2013-12-20 12:36:00,17.3,11.9,29.99,East,98,0.0,7.0,79,0.00,,SKC,0.00,VWS V14.01,2013-12-20 18:36:00,
2013-12-20 12:41:00,17.7,12.3,29.98,East,98,0.0,7.0,79,0.00,,SKC,0.00,VWS V14.01,2013-12-20 18:41:00,
2013-12-20 12:46:00,18.0,12.3,29.98,East,98,4.0,7.0,78,0.00,,SKC,0.00,VWS V14.01,2013-12-20 18:46:00,
2013-12-20 12:51:00,18.1,12.1,29.98,ENE,75,2.0,7.0,77,0.00,,SKC,0.00,VWS V14.01,2013-12-20 18:51:00,
2013-12-20 12:56:00,18.2,12.2,29.97,ESE,103,0.0,7.0,77,0.00,,SKC,0.00,VWS V14.01,2013-12-20 18:56:00,
2013-12-20 13:01:00,18.4,12.7,29.97,East,88,0.0,6.0,78,0.00,,SKC,0.00,VWS V14.01,2013-12-20 19:01:00,
2013-12-20 13:06:00,18.7,12.7,29.97,East,88,0.0,6.0,77,0.00,,SKC,0.00,VWS V14.01,2013-12-20 19:06:00,
2013-12-20 13:11:00,18.9,12.9,29.97,East,85,0.0,6.0,77,0.00,,SKC,0.00,VWS V14.01,2013-12-20 19:11:00,
2013-12-20 13:16:00,19.1,13.1,29.97,ESE,106,0.0,6.0,77,0.00,,SKC,0.00,VWS V14.01,2013-12-20 19:16:00,
2013-12-20 13:21:00,19.2,12.9,29.97,East,88,2.0,6.0,76,0.00,,SKC,0.00,VWS V14.01,2013-12-20 19:21:00,
2013-12-20 13:26:00,19.0,12.4,29.97,East,86,2.0,6.0,75,0.00,,SKC,0.00,VWS V14.01,2013-12-20 19:26:00,
2013-12-20 13:31:00,18.8,12.5,29.97,East,82,3.0,4.0,76,0.00,,SKC,0.00,VWS V14.01,2013-12-20 19:31:00,
2013-12-20 13:34:00,18.6,12.3,29.97,East,100,1.0,4.0,76,0.00,,SKC,0.00,VWS V14.01,2013-12-20 19:34:00,
2013-12-20 13:39:00,18.5,12.2,29.97,ESE,106,2.0,5.0,76,0.00,,SKC,0.00,VWS V14.01,2013-12-20 19:39:00,
2013-12-20 13:44:00,18.4,12.1,29.97,ESE,112,0.0,5.0,76,0.00,,SKC,0.00,VWS V14.01,2013-12-20 19:44:00,
2013-12-20 13:49:00,18.5,12.2,29.97,ESE,111,0.0,5.0,76,0.00,,SKC,0.00,VWS V14.01,2013-12-20 19:49:00,
2013-12-20 13:54:00,18.4,12.1,29.97,ESE,111,1.0,5.0,76,0.00,,SKC,0.00,VWS V14.01,2013-12-20 19:54:00,
2013-12-20 13:59:00,18.5,12.2,29.97,ESE,111,0.0,0.0,76,0.00,,SKC,0.00,VWS V14.01,2013-12-20 19:59:00,
2013-12-20 14:04:00,18.6,12.3,29.96,ESE,111,0.0,4.0,76,0.00,,SKC,0.00,VWS V14.01,2013-12-20 20:04:00,
2013-12-20 14:09:00,18.6,12.3,29.96,ESE,111,0.0,4.0,76,0.00,,SKC,0.00,VWS V14.01,2013-12-20 20:09:00,
2013-12-20 14:14:00,18.6,12.6,29.96,ESE,111,1.0,4.0,77,0.00,,SKC,0.00,VWS V14.01,2013-12-20 20:14:00,
2013-12-20 14:19:00,18.6,12.3,29.96,ESE,111,0.0,4.0,76,0.00,,SKC,0.00,VWS V14.01,2013-12-20 20:19:00,
2013-12-20 14:24:00,18.7,12.7,29.95,ESE,111,0.0,4.0,77,0.00,,SKC,0.00,VWS V14.01,2013-12-20 20:24:00,
2013-12-20 14:29:00,18.6,12.3,29.95,ESE,111,0.0,0.0,76,0.00,,SKC,0.00,VWS V14.01,2013-12-20 20:29:00,
2013-12-20 14:34:00,18.5,12.2,29.95,ESE,111,0.0,0.0,76,0.00,,SKC,0.00,VWS V14.01,2013-12-20 20:34:00,
2013-12-20 14:39:00,18.5,12.2,29.96,ESE,111,0.0,2.0,76,0.00,,SKC,0.00,VWS V14.01,2013-12-20 20:39:00,
2013-12-20 14:44:00,18.6,12.3,29.95,ESE,111,0.0,2.0,76,0.00,,SKC,0.00,VWS V14.01,2013-12-20 20:44:00,
2013-12-20 14:49:00,18.6,12.3,29.95,ESE,111,2.0,2.0,76,0.00,,SKC,0.00,VWS V14.01,2013-12-20 20:49:00,
2013-12-20 14:54:00,18.7,12.4,29.95,ESE,111,0.0,2.0,76,0.00,,SKC,0.00,VWS V14.01,2013-12-20 20:54:00,
2013-12-20 14:59:00,18.7,12.4,29.95,ESE,110,0.0,0.0,76,0.00,,SKC,0.00,VWS V14.01,2013-12-20 20:59:00,
2013-12-20 15:04:00,18.7,12.4,29.95,ESE,110,0.0,2.0,76,0.00,,SKC,0.00,VWS V14.01,2013-12-20 21:04:00,
2013-12-20 15:09:00,18.6,12.3,29.95,ESE,110,0.0,2.0,76,0.00,,SKC,0.00,VWS V14.01,2013-12-20 21:09:00,
2013-12-20 15:14:00,18.6,12.3,29.95,ESE,110,0.0,2.0,76,0.00,,SKC,0.00,VWS V14.01,2013-12-20 21:14:00,
2013-12-20 15:19:00,18.6,12.3,29.95,ESE,105,0.0,4.0,76,0.00,,SKC,0.00,VWS V14.01,2013-12-20 21:19:00,
2013-12-20 15:24:00,18.6,12.3,29.95,NW,326,0.0,4.0,76,0.00,,SKC,0.00,VWS V14.01,2013-12-20 21:24:00,
2013-12-20 15:29:00,18.6,12.3,29.95,NW,304,0.0,0.0,76,0.00,,SKC,0.00,VWS V14.01,2013-12-20 21:29:00,
2013-12-20 15:34:00,18.5,12.2,29.94,NW,304,0.0,2.0,76,0.00,,SKC,0.00,VWS V14.01,2013-12-20 21:34:00,
2013-12-20 15:39:00,18.4,12.1,29.94,NW,304,0.0,2.0,76,0.00,,SKC,0.00,VWS V14.01,2013-12-20 21:39:00,
2013-12-20 15:43:00,18.3,12.0,29.94,NW,304,4.0,4.0,76,0.00,,SKC,0.00,VWS V14.01,2013-12-20 21:43:00,
2013-12-20 15:49:00,18.2,11.9,29.94,NW,304,0.0,4.0,76,0.00,,SKC,0.00,VWS V14.01,2013-12-20 21:49:00,
2013-12-20 15:53:00,18.1,11.8,29.94,NW,304,0.0,4.0,76,0.00,,SKC,0.00,VWS V14.01,2013-12-20 21:53:00,
2013-12-20 15:58:00,18.1,11.8,29.94,NW,304,1.0,1.0,76,0.00,,SKC,0.00,VWS V14.01,2013-12-20 21:58:00,
2013-12-20 16:03:00,18.0,12.0,29.94,NW,304,0.0,2.0,77,0.00,,SKC,0.00,VWS V14.01,2013-12-20 22:03:00,
2013-12-20 16:08:00,18.0,12.0,29.93,NW,304,0.0,2.0,77,0.00,,SKC,0.00,VWS V14.01,2013-12-20 22:08:00,
2013-12-20 16:14:00,17.9,11.9,29.93,NW,304,0.0,2.0,77,0.00,,SKC,0.00,VWS V14.01,2013-12-20 22:14:00,
2013-12-20 16:19:00,17.8,11.8,29.93,NW,304,0.0,2.0,77,0.00,,SKC,0.00,VWS V14.01,2013-12-20 22:19:00,
2013-12-20 16:23:00,17.6,11.6,29.93,NW,304,0.0,2.0,77,0.00,,SKC,0.00,VWS V14.01,2013-12-20 22:23:00,
2013-12-20 16:28:00,17.5,11.5,29.92,NW,304,0.0,0.0,77,0.00,,SKC,0.00,VWS V14.01,2013-12-20 22:28:00,
2013-12-20 16:33:00,17.3,11.6,29.92,NW,304,0.0,0.0,78,0.00,,SKC,0.00,VWS V14.01,2013-12-20 22:33:00,
2013-12-20 16:38:00,17.1,11.7,29.92,NW,304,0.0,0.0,79,0.00,,SKC,0.00,VWS V14.01,2013-12-20 22:38:00,
2013-12-20 16:43:00,16.9,11.5,29.92,NW,304,0.0,0.0,79,0.00,,SKC,0.00,VWS V14.01,2013-12-20 22:43:00,
2013-12-20 16:48:00,16.7,11.3,29.92,NW,304,0.0,0.0,79,0.00,,SKC,0.00,VWS V14.01,2013-12-20 22:48:00,
2013-12-20 16:53:00,16.4,11.0,29.92,NW,304,0.0,0.0,79,0.00,,SKC,0.00,VWS V14.01,2013-12-20 22:53:00,
2013-12-20 16:58:00,16.1,11.0,29.92,NW,304,0.0,0.0,80,0.00,,SKC,0.00,VWS V14.01,2013-12-20 22:58:00,
2013-12-20 17:03:00,15.9,10.8,29.92,NW,304,0.0,0.0,80,0.00,,SKC,0.00,VWS V14.01,2013-12-20 23:03:00,
2013-12-20 17:08:00,15.6,10.8,29.93,NW,304,0.0,0.0,81,0.00,,SKC,0.00,VWS V14.01,2013-12-20 23:08:00,
2013-12-20 17:13:00,15.4,10.9,29.93,NW,304,0.0,0.0,82,0.00,,SKC,0.00,VWS V14.01,2013-12-20 23:13:00,
2013-12-20 17:18:00,15.2,10.7,29.93,NW,304,0.0,0.0,82,0.00,,SKC,0.00,VWS V14.01,2013-12-20 23:18:00,
2013-12-20 17:23:00,15.0,10.5,29.93,NW,304,0.0,0.0,82,0.00,,SKC,0.00,VWS V14.01,2013-12-20 23:23:00,
2013-12-20 17:28:00,14.9,10.7,29.93,NW,304,0.0,0.0,83,0.00,,SKC,0.00,VWS V14.01,2013-12-20 23:28:00,
2013-12-20 17:33:00,14.8,10.6,29.93,NW,304,0.0,0.0,83,0.00,,SKC,0.00,VWS V14.01,2013-12-20 23:33:00,
2013-12-20 17:38:00,14.6,10.4,29.93,NW,304,0.0,0.0,83,0.00,,SKC,0.00,VWS V14.01,2013-12-20 23:38:00,
2013-12-20 17:43:00,14.5,10.3,29.93,NW,304,0.0,0.0,83,0.00,,SKC,0.00,VWS V14.01,2013-12-20 23:43:00,
2013-12-20 17:48:00,14.5,10.3,29.93,NW,304,0.0,0.0,83,0.00,,SKC,0.00,VWS V14.01,2013-12-20 23:48:00,
2013-12-20 17:53:00,14.4,10.5,29.93,NW,304,0.0,0.0,84,0.00,,SKC,0.00,VWS V14.01,2013-12-20 23:53:00,
2013-12-20 17:58:00,14.4,10.5,29.93,NW,304,0.0,0.0,84,0.00,,SKC,0.00,VWS V14.01,2013-12-20 23:58:00,
2013-12-20 18:03:00,14.4,10.5,29.93,NW,304,0.0,0.0,84,0.00,,SKC,0.00,VWS V14.01,2013-12-21 00:03:00,
2013-12-20 18:08:00,14.3,10.4,29.93,NW,304,0.0,0.0,84,0.00,,SKC,0.00,VWS V14.01,2013-12-21 00:08:00,
2013-12-20 18:13:00,14.4,10.5,29.93,NW,304,0.0,0.0,84,0.00,,SKC,0.00,VWS V14.01,2013-12-21 00:13:00,
2013-12-20 18:18:00,14.3,10.4,29.93,NW,304,0.0,0.0,84,0.00,,SKC,0.00,VWS V14.01,2013-12-21 00:18:00,
2013-12-20 18:23:00,14.3,10.6,29.94,NW,304,0.0,0.0,85,0.00,,SKC,0.00,VWS V14.01,2013-12-21 00:23:00,
2013-12-20 18:28:00,14.4,10.7,29.93,NW,304,0.0,0.0,85,0.00,,SKC,0.00,VWS V14.01,2013-12-21 00:28:00,
2013-12-20 18:33:00,14.4,10.7,29.94,NW,304,0.0,0.0,85,0.00,,SKC,0.00,VWS V14.01,2013-12-21 00:33:00,
2013-12-20 18:38:00,14.4,10.7,29.94,NW,304,0.0,0.0,85,0.00,,SKC,0.00,VWS V14.01,2013-12-21 00:38:00,
2013-12-20 18:43:00,14.3,10.4,29.94,NW,304,0.0,0.0,84,0.00,,SKC,0.00,VWS V14.01,2013-12-21 00:43:00,
2013-12-20 18:48:00,14.3,10.6,29.94,NW,304,0.0,0.0,85,0.00,,SKC,0.00,VWS V14.01,2013-12-21 00:48:00,
2013-12-20 18:53:00,14.3,10.6,29.94,NW,304,0.0,0.0,85,0.00,,SKC,0.00,VWS V14.01,2013-12-21 00:53:00,
2013-12-20 18:58:00,14.3,10.6,29.93,NW,304,0.0,0.0,85,0.00,,SKC,0.00,VWS V14.01,2013-12-21 00:58:00,
2013-12-20 19:03:00,14.4,10.5,29.93,NW,304,0.0,0.0,84,0.00,,SKC,0.00,VWS V14.01,2013-12-21 01:03:00,
2013-12-20 19:08:00,14.4,10.5,29.93,NW,304,0.0,0.0,84,0.00,,SKC,0.00,VWS V14.01,2013-12-21 01:08:00,
2013-12-20 19:13:00,14.3,10.4,29.93,NW,304,0.0,0.0,84,0.00,,SKC,0.00,VWS V14.01,2013-12-21 01:13:00,
2013-12-20 19:18:00,14.3,10.6,29.93,NW,304,0.0,0.0,85,0.00,,SKC,0.00,VWS V14.01,2013-12-21 01:18:00,
2013-12-20 19:23:00,14.3,10.6,29.94,NW,304,0.0,0.0,85,0.00,,SKC,0.00,VWS V14.01,2013-12-21 01:23:00,
2013-12-20 19:28:00,14.3,10.6,29.94,NW,304,0.0,0.0,85,0.00,,SKC,0.00,VWS V14.01,2013-12-21 01:28:00,
2013-12-20 19:33:00,14.2,10.5,29.93,NW,304,0.0,0.0,85,0.00,,SKC,0.00,VWS V14.01,2013-12-21 01:33:00,
2013-12-20 19:38:00,14.2,10.5,29.93,NW,304,0.0,0.0,85,0.00,,SKC,0.00,VWS V14.01,2013-12-21 01:38:00,
2013-12-20 19:43:00,14.2,10.5,29.93,NW,304,0.0,0.0,85,0.00,,SKC,0.00,VWS V14.01,2013-12-21 01:43:00,
2013-12-20 19:48:00,14.1,10.4,29.93,NW,304,0.0,0.0,85,0.00,,SKC,0.00,VWS V14.01,2013-12-21 01:48:00,
2013-12-20 19:53:00,14.1,10.4,29.93,NW,304,0.0,0.0,85,0.00,,SKC,0.00,VWS V14.01,2013-12-21 01:53:00,
2013-12-20 19:58:00,14.1,10.4,29.93,NW,304,0.0,0.0,85,0.00,,SKC,0.00,VWS V14.01,2013-12-21 01:58:00,
2013-12-20 20:03:00,14.1,10.4,29.93,NW,304,0.0,0.0,85,0.00,,SKC,0.00,VWS V14.01,2013-12-21 02:03:00,
2013-12-20 20:08:00,14.1,10.4,29.93,NW,304,0.0,0.0,85,0.00,,SKC,0.00,VWS V14.01,2013-12-21 02:08:00,
2013-12-20 20:13:00,14.0,10.6,29.93,NW,304,0.0,0.0,86,0.00,,SKC,0.00,VWS V14.01,2013-12-21 02:13:00,
2013-12-20 20:18:00,14.1,10.7,29.93,NW,304,0.0,0.0,86,0.00,,SKC,0.00,VWS V14.01,2013-12-21 02:18:00,
2013-12-20 20:23:00,14.0,10.6,29.93,NW,304,0.0,0.0,86,0.00,,SKC,0.00,VWS V14.01,2013-12-21 02:23:00,
2013-12-20 20:28:00,14.0,10.6,29.93,NW,304,0.0,0.0,86,0.00,,SKC,0.00,VWS V14.01,2013-12-21 02:28:00,
2013-12-20 20:33:00,14.0,10.6,29.92,NW,304,0.0,0.0,86,0.00,,SKC,0.00,VWS V14.01,2013-12-21 02:33:00,
2013-12-20 20:38:00,14.0,10.6,29.92,NW,304,0.0,0.0,86,0.00,,SKC,0.00,VWS V14.01,2013-12-21 02:38:00,
2013-12-20 20:43:00,14.0,10.6,29.92,NW,304,0.0,0.0,86,0.00,,SKC,0.00,VWS V14.01,2013-12-21 02:43:00,
2013-12-20 20:48:00,14.1,10.7,29.91,NW,304,0.0,0.0,86,0.00,,SKC,0.00,VWS V14.01,2013-12-21 02:48:00,
2013-12-20 20:53:00,14.2,10.8,29.91,NW,304,0.0,0.0,86,0.00,,SKC,0.00,VWS V14.01,2013-12-21 02:53:00,
2013-12-20 20:58:00,14.2,10.8,29.91,NW,304,0.0,0.0,86,0.00,,SKC,0.00,VWS V14.01,2013-12-21 02:58:00,
2013-12-20 21:03:00,14.3,10.9,29.91,NW,304,0.0,0.0,86,0.00,,SKC,0.00,VWS V14.01,2013-12-21 03:03:00,
2013-12-20 21:08:00,14.3,10.9,29.91,NW,304,0.0,0.0,86,0.00,,SKC,0.00,VWS V14.01,2013-12-21 03:08:00,
2013-12-20 21:13:00,14.3,10.9,29.91,NW,304,0.0,0.0,86,0.00,,SKC,0.00,VWS V14.01,2013-12-21 03:13:00,
2013-12-20 21:18:00,14.3,10.9,29.91,NW,304,0.0,0.0,86,0.00,,SKC,0.00,VWS V14.01,2013-12-21 03:18:00,
2013-12-20 21:23:00,14.3,10.9,29.91,NW,304,0.0,0.0,86,0.00,,SKC,0.00,VWS V14.01,2013-12-21 03:23:00,
2013-12-20 21:28:00,14.3,10.9,29.91,NW,304,0.0,0.0,86,0.00,,SKC,0.00,VWS V14.01,2013-12-21 03:28:00,
2013-12-20 21:33:00,14.3,10.9,29.90,NW,304,0.0,0.0,86,0.00,,SKC,0.00,VWS V14.01,2013-12-21 03:33:00,
2013-12-20 21:38:00,14.3,10.9,29.90,NW,304,0.0,0.0,86,0.00,,SKC,0.00,VWS V14.01,2013-12-21 03:38:00,
2013-12-20 21:43:00,14.3,10.9,29.90,NW,304,0.0,0.0,86,0.00,,SKC,0.00,VWS V14.01,2013-12-21 03:43:00,
2013-12-20 21:48:00,14.2,10.8,29.90,NW,304,0.0,0.0,86,0.00,,SKC,0.00,VWS V14.01,2013-12-21 03:48:00,
2013-12-20 21:53:00,14.2,10.8,29.89,NW,304,0.0,0.0,86,0.00,,SKC,0.00,VWS V14.01,2013-12-21 03:53:00,
2013-12-20 21:58:00,14.2,10.8,29.89,NW,304,0.0,0.0,86,0.00,,SKC,0.00,VWS V14.01,2013-12-21 03:58:00,
2013-12-20 22:03:00,14.2,10.8,29.89,NW,304,0.0,0.0,86,0.00,,SKC,0.00,VWS V14.01,2013-12-21 04:03:00,
2013-12-20 22:08:00,14.2,10.8,29.89,NW,304,0.0,0.0,86,0.00,,SKC,0.00,VWS V14.01,2013-12-21 04:08:00,
2013-12-20 22:13:00,14.2,10.8,29.89,NW,304,0.0,0.0,86,0.00,,SKC,0.00,VWS V14.01,2013-12-21 04:13:00,
2013-12-20 22:18:00,14.2,10.8,29.89,NW,304,0.0,0.0,86,0.00,,SKC,0.00,VWS V14.01,2013-12-21 04:18:00,
2013-12-20 22:23:00,14.2,11.1,29.89,NW,304,0.0,0.0,87,0.00,,SKC,0.00,VWS V14.01,2013-12-21 04:23:00,
2013-12-20 22:28:00,14.3,11.1,29.90,NW,304,0.0,0.0,87,0.00,,SKC,0.00,VWS V14.01,2013-12-21 04:28:00,
2013-12-20 22:33:00,14.3,11.1,29.89,NW,304,0.0,0.0,87,0.00,,SKC,0.00,VWS V14.01,2013-12-21 04:33:00,
2013-12-20 22:38:00,14.4,11.2,29.89,NW,304,0.0,0.0,87,0.00,,SKC,0.00,VWS V14.01,2013-12-21 04:38:00,
2013-12-20 22:43:00,14.4,11.2,29.89,NW,304,0.0,0.0,87,0.00,,SKC,0.00,VWS V14.01,2013-12-21 04:43:00,
2013-12-20 22:48:00,14.4,11.2,29.89,NW,304,0.0,0.0,87,0.00,,SKC,0.00,VWS V14.01,2013-12-21 04:48:00,
2013-12-20 22:53:00,14.4,11.2,29.88,NW,304,0.0,0.0,87,0.00,,SKC,0.00,VWS V14.01,2013-12-21 04:53:00,
2013-12-20 22:58:00,14.5,11.3,29.88,NW,304,0.0,0.0,87,0.00,,SKC,0.00,VWS V14.01,2013-12-21 04:58:00,
2013-12-20 23:01:00,14.5,11.3,29.88,NW,304,0.0,0.0,87,0.00,,SKC,0.00,VWS V14.01,2013-12-21 05:01:00,
2013-12-20 23:02:00,14.5,11.3,29.88,NW,304,0.0,0.0,87,0.00,,SKC,0.00,VWS V14.01,2013-12-21 05:02:00,
2013-12-20 23:07:00,14.6,11.4,29.88,NW,304,0.0,0.0,87,0.00,,SKC,0.00,VWS V14.01,2013-12-21 05:07:00,
2013-12-20 23:12:00,14.6,11.2,29.88,NW,304,0.0,0.0,86,0.00,,SKC,0.00,VWS V14.01,2013-12-21 05:12:00,
2013-12-20 23:17:00,14.6,11.2,29.88,NW,304,0.0,0.0,86,0.00,,SKC,0.00,VWS V14.01,2013-12-21 05:17:00,
2013-12-20 23:22:00,14.7,11.3,29.88,NW,304,0.0,0.0,86,0.00,,SKC,0.00,VWS V14.01,2013-12-21 05:22:00,
2013-12-20 23:27:00,14.7,11.3,29.88,NW,304,0.0,0.0,86,0.00,,SKC,0.00,VWS V14.01,2013-12-21 05:27:00,
2013-12-20 23:32:00,14.7,11.3,29.89,NW,304,0.0,0.0,86,0.00,,SKC,0.00,VWS V14.01,2013-12-21 05:32:00,
2013-12-20 23:37:00,14.8,11.4,29.89,NW,304,0.0,0.0,86,0.00,,SKC,0.00,VWS V14.01,2013-12-21 05:37:00,
2013-12-20 23:42:00,14.8,11.4,29.89,NW,304,0.0,0.0,86,0.00,,SKC,0.00,VWS V14.01,2013-12-21 05:42:00,
2013-12-20 23:47:00,14.8,11.4,29.89,NW,304,0.0,0.0,86,0.00,,SKC,0.00,VWS V14.01,2013-12-21 05:47:00,
2013-12-20 23:52:00,14.8,11.4,29.89,NW,304,0.0,0.0,86,0.00,,SKC,0.00,VWS V14.01,2013-12-21 05:52:00,
2013-12-20 23:57:00,14.8,11.4,29.89,NW,304,0.0,0.0,86,0.00,,SKC,0.00,VWS V14.01,2013-12-21 05:57:00,